Location: Chiroubles
(46.1812°N, 4.6660°E)
Time: 16:52:49
(UTC+00:00)

BREEZE-M DEB (TANK) - Pass Details

Date: 15 August 2020
Orbit: 280 x 20489 km, 49.2° (Epoch: 22 September)

Event Time Altitude Azimuth Distance (km) Brightness Sun altitude
Rises 19:58:58 0° 275° (W) 3,546 8.1 -11.5°
Reaches altitude 10° 20:02:27 10° 283° (WNW) 1,719 6.5 -12.0°
Maximum altitude 20:05:21 40° 357° (N) 486 2.9 -12.4°
Enters shadow 20:06:50 14° 67° (ENE) 918 3.7 -12.6°
